Location: Casaglia
(44.0333°N, 11.5167°E)
Time: 10:15:03
(UTC+00:00)

Cosmos 1076 Rocket - Pass Details

Date: 07 June 2020
Orbit: 588 x 614 km, 82.5° (Epoch: 07 July)

Event Time Altitude Azimuth Distance (km) Brightness Sun altitude
Exits shadow 01:39:50 25° 195° (SSW) 1,256 4.6 -15.2°
Maximum altitude 01:42:21 77° 278° (W) 635 3.5 -14.9°
Drops below altitude 10° 01:46:45 10° 6° (N) 1,981 7.1 -14.5°
Sets 01:48:59 0° 8° (N) 2,888 8.1 -14.2°
